When you browse on this site, cookies collect data to enhance your experience and personalize the content and advertising you see.
Visit our Privacy Policy to learn more. By continuing to use the site, you agree to this use of cookies and data.
  • En España
  • Lista de países
  • Para 7 días
  • Temperatura del agua
  • El tiempo en el mapa
  • Informadores
  • user-avatar
    Iniciar sesión

    Tiempo cada hora Korçe

    Hoy, 1 Junio, Lunes

    Tiempo Temperatura Precipitaciones Viento Presión Humedad
    00:00 +6°C° 0 mm 0 mps 663 mmHg 94%
    01:00 +6°C° 0 mm 0 mps 663 mmHg 94%
    02:00 +6°C° 0 mm 0 mps 663 mmHg 94%
    03:00 +6°C° 0 mm 0 mps 663 mmHg 94%
    04:00 +5°C° 0 mm 0 mps 663 mmHg 94%
    05:00 +8°C° 0.1 mm 1 mps 663 mmHg 91%
    06:00 +9°C° 0.1 mm 1 mps 663 mmHg 88%
    07:00 +9°C° 0.1 mm 2 mps 664 mmHg 84%
    08:00 +10°C° 0.2 mm 2 mps 664 mmHg 80%
    09:00 +12°C° 0.2 mm 2 mps 664 mmHg 75%
    10:00 +12°C° 0.2 mm 2 mps 664 mmHg 70%
    11:00 +13°C° 0.4 mm 2 mps 664 mmHg 70%
    12:00 +13°C° 0.4 mm 2 mps 664 mmHg 69%
    13:00 +13°C° 0.4 mm 2 mps 664 mmHg 68%
    14:00 +13°C° 0.4 mm 2 mps 664 mmHg 70%
    15:00 +13°C° 0.4 mm 2 mps 664 mmHg 72%
    16:00 +13°C° 0.4 mm 2 mps 664 mmHg 73%
    17:00 +12°C° 0.2 mm 2 mps 663 mmHg 79%
    18:00 +10°C° 0.2 mm 2 mps 663 mmHg 84%
    19:00 +8°C° 0.2 mm 2 mps 662 mmHg 89%
    20:00 +8°C° 0 mm 2 mps 663 mmHg 91%
    21:00 +8°C° 0 mm 1 mps 663 mmHg 92%
    22:00 +7°C° 0 mm 1 mps 663 mmHg 93%
    23:00 +7°C° 0 mm 1 mps 662 mmHg 93%

    Mañana, 2 Junio, Martes

    Tiempo Temperatura Precipitaciones Viento Presión Humedad
    00:00 +7°C° 0 mm 1 mps 662 mmHg 92%
    01:00 +7°C° 0 mm 1 mps 662 mmHg 92%
    02:00 +7°C° 0 mm 1 mps 662 mmHg 92%
    03:00 +7°C° 0 mm 1 mps 662 mmHg 92%
    04:00 +7°C° 0 mm 1 mps 662 mmHg 91%
    05:00 +8°C° 0 mm 1 mps 662 mmHg 85%
    06:00 +10°C° 0 mm 1 mps 663 mmHg 79%
    07:00 +12°C° 0 mm 1 mps 663 mmHg 74%
    08:00 +14°C° 0 mm 1 mps 664 mmHg 66%
    09:00 +15°C° 0 mm 1 mps 664 mmHg 59%
    10:00 +17°C° 0 mm 2 mps 665 mmHg 52%
    11:00 +17°C° 0.1 mm 2 mps 664 mmHg 53%
    12:00 +17°C° 0.1 mm 2 mps 664 mmHg 54%
    13:00 +17°C° 0.1 mm 3 mps 664 mmHg 55%
    14:00 +17°C° 0.3 mm 3 mps 664 mmHg 59%
    15:00 +16°C° 0.3 mm 3 mps 663 mmHg 63%
    16:00 +16°C° 0.3 mm 3 mps 663 mmHg 67%
    17:00 +13°C° 0.1 mm 3 mps 662 mmHg 74%
    18:00 +12°C° 0.1 mm 2 mps 662 mmHg 81%
    19:00 +10°C° 0.1 mm 1 mps 661 mmHg 87%
    20:00 +9°C° 0 mm 1 mps 661 mmHg 89%
    21:00 +9°C° 0 mm 1 mps 661 mmHg 90%
    22:00 +8°C° 0 mm 1 mps 662 mmHg 91%
    23:00 +8°C° 0 mm 1 mps 661 mmHg 90%

    Pasado mañana, 3 Junio, Miércoles

    Tiempo Temperatura Precipitaciones Viento Presión Humedad
    00:00 +6°C° 0 mm 0 mps 661 mmHg 89%
    01:00 +6°C° 0 mm 0 mps 661 mmHg 88%
    02:00 +6°C° 0 mm 0 mps 661 mmHg 87%
    03:00 +6°C° 0 mm 0 mps 661 mmHg 86%
    04:00 +6°C° 0 mm 0 mps 661 mmHg 84%
    05:00 +8°C° 0 mm 0 mps 661 mmHg 79%
    06:00 +10°C° 0 mm 0 mps 662 mmHg 74%
    07:00 +12°C° 0 mm 0 mps 663 mmHg 69%
    08:00 +14°C° 0 mm 1 mps 663 mmHg 64%
    09:00 +15°C° 0 mm 1 mps 664 mmHg 59%
    10:00 +16°C° 0 mm 2 mps 664 mmHg 54%
    11:00 +17°C° 0.1 mm 2 mps 664 mmHg 54%
    12:00 +17°C° 0.1 mm 3 mps 664 mmHg 54%
    13:00 +18°C° 0.1 mm 3 mps 664 mmHg 54%
    14:00 +17°C° 0.2 mm 3 mps 664 mmHg 57%
    15:00 +17°C° 0.2 mm 3 mps 664 mmHg 60%
    16:00 +17°C° 0.2 mm 3 mps 664 mmHg 63%
    17:00 +15°C° 0.1 mm 2 mps 663 mmHg 71%
    18:00 +13°C° 0.1 mm 2 mps 663 mmHg 78%
    19:00 +11°C° 0.1 mm 1 mps 663 mmHg 86%
    20:00 +10°C° 0 mm 1 mps 663 mmHg 87%
    21:00 +10°C° 0 mm 1 mps 663 mmHg 88%
    22:00 +8°C° 0 mm 0 mps 663 mmHg 88%
    23:00 +9°C° 0 mm 1 mps 663 mmHg 86%

    4 Junio, Jueves

    Tiempo Temperatura Precipitaciones Viento Presión Humedad
    00:00 +8°C° 0 mm 1 mps 663 mmHg 84%
    01:00 +8°C° 0 mm 1 mps 663 mmHg 82%
    02:00 +8°C° 0 mm 1 mps 663 mmHg 81%
    03:00 +8°C° 0 mm 1 mps 663 mmHg 79%
    04:00 +8°C° 0 mm 1 mps 663 mmHg 77%
    05:00 +10°C° 0 mm 1 mps 664 mmHg 72%
    06:00 +12°C° 0 mm 1 mps 664 mmHg 66%
    07:00 +14°C° 0 mm 1 mps 665 mmHg 60%
    08:00 +16°C° 0 mm 1 mps 666 mmHg 56%
    09:00 +18°C° 0 mm 1 mps 667 mmHg 53%
    10:00 +19°C° 0 mm 2 mps 667 mmHg 49%
    11:00 +19°C° 0 mm 2 mps 667 mmHg 49%
    12:00 +20°C° 0 mm 2 mps 667 mmHg 49%
    13:00 +20°C° 0 mm 3 mps 667 mmHg 48%
    14:00 +20°C° 0.1 mm 2 mps 667 mmHg 50%
    15:00 +20°C° 0.1 mm 2 mps 667 mmHg 51%
    16:00 +19°C° 0.1 mm 2 mps 667 mmHg 52%
    17:00 +17°C° 0 mm 2 mps 667 mmHg 60%
    18:00 +15°C° 0 mm 2 mps 666 mmHg 69%
    19:00 +13°C° 0 mm 1 mps 666 mmHg 77%
    20:00 +12°C° 0 mm 1 mps 666 mmHg 79%
    21:00 +12°C° 0 mm 2 mps 666 mmHg 82%
    22:00 +10°C° 0 mm 2 mps 666 mmHg 85%
    23:00 +10°C° 0 mm 2 mps 666 mmHg 84%

    5 Junio, Viernes

    Tiempo Temperatura Precipitaciones Viento Presión Humedad
    00:00 +9°C° 0 mm 2 mps 666 mmHg 84%
    01:00 +9°C° 0 mm 2 mps 666 mmHg 84%
    02:00 +9°C° 0 mm 2 mps 666 mmHg 82%
    03:00 +9°C° 0 mm 2 mps 666 mmHg 80%
    04:00 +9°C° 0 mm 2 mps 666 mmHg 78%
    05:00 +12°C° 0 mm 2 mps 667 mmHg 72%
    06:00 +13°C° 0 mm 2 mps 667 mmHg 67%
    07:00 +15°C° 0 mm 2 mps 668 mmHg 61%
    08:00 +17°C° 0 mm 2 mps 669 mmHg 56%
    09:00 +18°C° 0 mm 2 mps 669 mmHg 50%
    10:00 +20°C° 0 mm 2 mps 670 mmHg 45%
    11:00 +21°C° 0 mm 2 mps 670 mmHg 45%
    12:00 +21°C° 0 mm 2 mps 670 mmHg 44%
    13:00 +23°C° 0 mm 2 mps 671 mmHg 44%
    14:00 +23°C° 0 mm 2 mps 670 mmHg 48%
    15:00 +21°C° 0 mm 2 mps 670 mmHg 52%
    16:00 +20°C° 0 mm 2 mps 669 mmHg 56%
    17:00 +18°C° 0 mm 2 mps 669 mmHg 62%
    18:00 +17°C° 0 mm 2 mps 668 mmHg 68%
    19:00 +15°C° 0 mm 1 mps 668 mmHg 73%
    20:00 +14°C° 0 mm 1 mps 668 mmHg 74%
    21:00 +14°C° 0 mm 1 mps 668 mmHg 74%
    22:00 +13°C° 0 mm 1 mps 668 mmHg 74%
    23:00 +13°C° 0 mm 2 mps 668 mmHg 75%

    6 Junio, Sábado

    Tiempo Temperatura Precipitaciones Viento Presión Humedad
    00:00 +12°C° 0 mm 2 mps 668 mmHg 75%
    01:00 +12°C° 0 mm 2 mps 668 mmHg 76%
    02:00 +13°C° 0 mm 2 mps 668 mmHg 74%
    03:00 +13°C° 0 mm 2 mps 668 mmHg 71%
    04:00 +13°C° 0 mm 2 mps 667 mmHg 69%
    05:00 +15°C° 0 mm 2 mps 668 mmHg 65%
    06:00 +17°C° 0 mm 2 mps 669 mmHg 62%
    07:00 +19°C° 0 mm 2 mps 669 mmHg 58%
    08:00 +21°C° 0 mm 3 mps 669 mmHg 53%
    09:00 +22°C° 0 mm 3 mps 670 mmHg 49%
    10:00 +25°C° 0 mm 3 mps 670 mmHg 44%
    11:00 +25°C° 0 mm 4 mps 670 mmHg 42%
    12:00 +26°C° 0 mm 4 mps 669 mmHg 39%
    13:00 +26°C° 0 mm 4 mps 669 mmHg 37%
    14:00 +26°C° 0 mm 4 mps 669 mmHg 38%
    15:00 +25°C° 0 mm 4 mps 668 mmHg 39%
    16:00 +23°C° 0 mm 4 mps 668 mmHg 41%
    17:00 +20°C° 0.5 mm 3 mps 667 mmHg 51%
    18:00 +18°C° 0.5 mm 2 mps 666 mmHg 61%
    19:00 +15°C° 0.5 mm 2 mps 666 mmHg 71%
    20:00 +14°C° 0.3 mm 2 mps 666 mmHg 73%
    21:00 +13°C° 0.3 mm 2 mps 666 mmHg 75%
    22:00 +12°C° 0.3 mm 2 mps 666 mmHg 77%
    23:00 +12°C° 0 mm 2 mps 665 mmHg 76%
    Mostrar más